Location: Austin
(30.3000°N, 97.7500°W)
Time: 12:29:06
(UTC-05:00)

ATLAS 5 CENTAUR R/B - Pass Details

Date: 26 May 2023
Orbit: 453 x 1180 km, 63.3° (Epoch: 11 May)

Event Time Altitude Azimuth Distance (km) Brightness Sun altitude
Rises 21:08:41 0° 312° (NW) 3,419 7.4 -9.2°
Reaches altitude 10° 21:11:27 10° 299° (WNW) 2,600 6.4 -9.7°
Maximum altitude 21:16:18 25° 247° (WSW) 1,929 4.5 -10.6°
Drops below altitude 10° 21:21:44 10° 197° (SSW) 2,941 4.8 -11.5°
Sets 21:25:06 0° 184° (S) 3,970 5.4 -12.1°
